Home > Weather > Kaufbeuren > Past weeks

Flag for Germany Weather for the Past 2 Weeks in Kaufbeuren, Bavaria, Germany

Now
32 °F

Chilly.


Feels Like: 32 °F
Forecast: 35 / 43 °F
Wind: 2 mph from Southwest

Location: Altenstadt Airport

Current Time: Feb 13, 2016 at 4:48:22 AM

Latest Report: Feb 13, 2016 at 3:20 AM


Visibility: N/A

Pressure: 29.30 "Hg (26.87 "Hg at 693m altitude)

Humidity: 87%

Dew point: 28 °F

Location of KaufbeurenLocation

Historic Weather in Kaufbeuren — Graph

°F

Kaufbeuren Temperature Yesterday

Maximum temperature yesterday: 41 °F (at 3:20 PM)
Minimum temperature yesterday: 25 °F (at 12:20 AM)
Average temperature yesterday: 32 °F

High & Low Weather Summary for the Past Weeks

 TemperatureHumidityPressure
High55 °F (Feb 6, 2:20 PM)100% (Jan 29, 10:20 AM)30.42 "Hg (Jan 29, 10:20 AM)
Low25 °F (Feb 11, 10:20 PM)31% (Feb 7, 1:20 PM)29.24 "Hg (Feb 9, 7:20 PM)
Average39 °F78%29.93 "Hg
* Reported Jan 29 3:20 AM — Feb 13 3:20 AM, Kaufbeuren, Weather by CustomWeather, © 2016

Note: Actual official high and low records may vary slightly from our data, if they occured in-between our weather recording intervals... More about our weather records

Advertising

Kaufbeuren Weather History for the Previous 24 Hours

 ConditionsComfort  
Time TempWeatherWind HumidityBarometerVisibility
3:20 AM
Sat, Feb 13
32 °FChilly.2 mph87%29.30 "HgN/A
2:20 AM32 °FChilly.5 mph87%29.30 "HgN/A
1:20 AM32 °FChilly.5 mph87%29.33 "HgN/A
12:20 AM32 °FChilly.5 mph87%29.33 "HgN/A
11:20 PM
Fri, Feb 12
34 °FChilly.2 mph81%29.33 "HgN/A
10:20 PM34 °FChilly.3 mph81%29.33 "HgN/A
9:20 PM34 °FChilly.5 mph75%29.33 "HgN/A
8:20 PM34 °FMostly cloudy.1 mph65%29.33 "HgN/A
7:20 PM36 °FMostly cloudy.3 mph60%29.33 "HgN/A
6:20 PM36 °FPartly cloudy.8 mph60%29.33 "HgN/A
5:20 PM37 °FPartly sunny.14 mph56%29.33 "HgN/A
4:20 PM39 °FBroken clouds.15 mph48%29.36 "HgN/A
3:20 PM41 °FPartly sunny.12 mph39%29.39 "HgN/A
2:20 PM39 °FPartly sunny.10 mph42%29.42 "HgN/A
1:20 PM39 °FPassing clouds.13 mph45%29.47 "HgN/A
12:20 PM37 °FPassing clouds.9 mph48%29.50 "HgN/A
11:20 AM37 °FPassing clouds.5 mph52%29.56 "HgN/A
10:20 AM34 °FScattered clouds.2 mph65%29.59 "HgN/A
9:20 AM30 °FBroken clouds.2 mph75%29.62 "HgN/A
8:20 AM28 °FBroken clouds.3 mph80%29.62 "HgN/A
7:20 AM28 °FPassing clouds.5 mph74%29.65 "HgN/A
6:20 AM27 °FPassing clouds.3 mph86%29.65 "HgN/A
5:20 AM27 °FPartly cloudy.1 mph86%29.65 "HgN/A
4:20 AM25 °FCold.3 mph86%29.68 "HgN/A
Weather by CustomWeather, © 2016

See weather overviewHow to use our weather pages